THA1123 VTCT-VTBS

Flight info

Callsign THA1123
Flight time 1h 2m
Altitude 33000
Route DUBEN1B DUBEN Y28 BLAFF DCT NORTA NORTA1C
Aircraft A346/H-SDE2E3FGHIJ3J4J5M1RWXY/LB1D1

Departure

Time 2026-05-06 22:48
Airport Mae Fah Luang - Chiang Rai International Airport (VTCT)

Arrival

Time 2026-05-06 23:50
Airport Suvarnabhumi Airport (VTBS)
Time Latitude Longitude Altitude Speed Heading
2026-05-06 22:33 19.95417 99.88026 1293 ft 0 kts 299°
2026-05-06 22:37 19.95414 99.88031 1294 ft 0 kts 299°
2026-05-06 22:38 19.95402 99.88054 1294 ft 0 kts 299°
2026-05-06 22:38 19.95389 99.88079 1294 ft 0 kts 299°
2026-05-06 22:38 19.95377 99.88103 1294 ft 0 kts 299°
2026-05-06 22:38 19.95375 99.88106 1294 ft 0 kts 299°
2026-05-06 22:42 19.95376 99.88105 1294 ft 1 kts 299°
2026-05-06 22:42 19.95383 99.88095 1294 ft 1 kts 332°
2026-05-06 22:43 19.95388 99.88094 1294 ft 1 kts
2026-05-06 22:43 19.95399 99.88105 1294 ft 8 kts 60°
2026-05-06 22:43 19.95380 99.88172 1293 ft 12 kts 122°
2026-05-06 22:43 19.95333 99.88257 1292 ft 15 kts 120°
2026-05-06 22:44 19.95348 99.88361 1291 ft 17 kts 39°
2026-05-06 22:44 19.95458 99.88431 1292 ft 19 kts 29°
2026-05-06 22:44 19.95582 99.88505 1293 ft 21 kts 29°
2026-05-06 22:44 19.95718 99.88585 1293 ft 23 kts 29°
2026-05-06 22:45 19.95865 99.88670 1293 ft 25 kts 29°
2026-05-06 22:45 19.96023 99.88760 1292 ft 27 kts 28°
2026-05-06 22:45 19.96183 99.88854 1292 ft 20 kts 29°
2026-05-06 22:45 19.96281 99.88891 1292 ft 10 kts
2026-05-06 22:46 19.96358 99.88892 1292 ft 12 kts
2026-05-06 22:46 19.96395 99.88929 1293 ft 6 kts 122°
2026-05-06 22:46 19.96337 99.88937 1292 ft 11 kts 192°
2026-05-06 22:46 19.96291 99.88916 1292 ft 0 kts 209°
2026-05-06 22:47 19.96282 99.88911 1292 ft 3 kts 209°
2026-05-06 22:47 19.96124 99.88818 1293 ft 60 kts 209°
2026-05-06 22:47 19.95553 99.88483 1293 ft 125 kts 209°
2026-05-06 22:47 19.94621 99.87940 1306 ft 177 kts 210°
2026-05-06 22:48 19.93510 99.87308 1869 ft 182 kts 209°
2026-05-06 22:48 19.92397 99.86648 2509 ft 184 kts 208°
2026-05-06 22:48 19.91269 99.85977 3186 ft 188 kts 208°
2026-05-06 22:48 19.90083 99.85282 3699 ft 200 kts 208°
2026-05-06 22:49 19.88828 99.84547 4068 ft 214 kts 209°
2026-05-06 22:49 19.87472 99.83754 4376 ft 232 kts 209°
2026-05-06 22:49 19.85909 99.83117 4687 ft 253 kts 188°
2026-05-06 22:49 19.84098 99.83288 5078 ft 273 kts 162°
2026-05-06 22:50 19.82478 99.84384 5716 ft 283 kts 135°
2026-05-06 22:50 19.81382 99.86138 6495 ft 287 kts 121°
2026-05-06 22:50 19.80407 99.88018 7215 ft 292 kts 120°
2026-05-06 22:50 19.79433 99.89905 7939 ft 296 kts 120°
2026-05-06 22:51 19.78428 99.91840 8708 ft 300 kts 120°
2026-05-06 22:51 19.77407 99.93794 9497 ft 304 kts 120°
2026-05-06 22:51 19.76371 99.95769 10234 ft 308 kts 120°
2026-05-06 22:51 19.75672 99.97102 10609 ft 316 kts 120°
2026-05-06 22:52 19.74185 99.99934 11139 ft 340 kts 120°
2026-05-06 22:52 19.73383 100.01392 11370 ft 351 kts 123°
2026-05-06 22:52 19.71905 100.03539 11703 ft 369 kts 131°
2026-05-06 22:52 19.70085 100.05548 12071 ft 384 kts 138°
2026-05-06 22:53 19.68081 100.07486 12716 ft 390 kts 139°
2026-05-06 22:53 19.66043 100.09411 13494 ft 393 kts 139°
2026-05-06 22:53 19.63981 100.11360 14179 ft 397 kts 139°
2026-05-06 22:53 19.61912 100.13327 14825 ft 401 kts 139°
2026-05-06 22:54 19.59823 100.15318 15469 ft 405 kts 139°
2026-05-06 22:54 19.57721 100.17325 16111 ft 409 kts 139°
2026-05-06 22:54 19.55404 100.19095 16700 ft 412 kts 153°
2026-05-06 22:54 19.52719 100.20136 17315 ft 413 kts 169°
2026-05-06 22:55 19.49863 100.20442 17943 ft 414 kts 179°
2026-05-06 22:55 19.46972 100.20527 18496 ft 418 kts 180°
2026-05-06 22:55 19.44045 100.20600 18971 ft 423 kts 180°
2026-05-06 22:55 19.41092 100.20674 19469 ft 426 kts 179°
2026-05-06 22:56 19.38159 100.20755 20013 ft 429 kts 179°
2026-05-06 22:56 19.35151 100.20846 20392 ft 436 kts 179°
2026-05-06 22:56 19.32093 100.20941 20754 ft 443 kts 179°
2026-05-06 22:56 19.28960 100.21041 21240 ft 446 kts 179°
2026-05-06 22:57 19.25849 100.21142 21747 ft 449 kts 179°
2026-05-06 22:57 19.22759 100.21243 22206 ft 452 kts 179°
2026-05-06 22:57 19.19603 100.21344 22697 ft 455 kts 180°
2026-05-06 22:57 19.16420 100.21447 23138 ft 459 kts 179°
2026-05-06 22:58 19.13219 100.21547 23556 ft 462 kts 179°
2026-05-06 22:58 19.09995 100.21651 23922 ft 465 kts 179°
2026-05-06 22:58 19.06751 100.21757 24302 ft 468 kts 179°
2026-05-06 22:58 19.03484 100.21863 24682 ft 471 kts 179°
2026-05-06 22:59 19.00202 100.21970 25058 ft 473 kts 179°
2026-05-06 22:59 18.96904 100.22076 25433 ft 476 kts 179°
2026-05-06 22:59 18.93588 100.22183 25816 ft 478 kts 180°
2026-05-06 22:59 18.90260 100.22290 26324 ft 477 kts 180°
2026-05-06 23:00 18.86950 100.22396 26877 ft 475 kts 180°
2026-05-06 23:00 18.83647 100.22503 27427 ft 474 kts 180°
2026-05-06 23:00 18.80350 100.22605 27967 ft 473 kts 180°
2026-05-06 23:00 18.77055 100.22713 28503 ft 472 kts 180°
2026-05-06 23:01 18.73775 100.22822 29032 ft 471 kts 180°
2026-05-06 23:01 18.70498 100.22932 29564 ft 470 kts 180°
2026-05-06 23:01 18.67231 100.23040 30076 ft 470 kts 180°
2026-05-06 23:01 18.63966 100.23148 30506 ft 469 kts 180°
2026-05-06 23:02 18.60712 100.23254 30962 ft 468 kts 180°
2026-05-06 23:02 18.57467 100.23360 31408 ft 467 kts 180°
2026-05-06 23:02 18.54215 100.23465 31802 ft 468 kts 180°
2026-05-06 23:02 18.50959 100.23571 32176 ft 469 kts 180°
2026-05-06 23:03 18.47665 100.23677 32560 ft 471 kts 180°
2026-05-06 23:03 18.44381 100.23783 32854 ft 472 kts 180°
2026-05-06 23:03 18.41138 100.23888 32868 ft 473 kts 180°
2026-05-06 23:04 18.34558 100.24101 32879 ft 474 kts 180°
2026-05-06 23:04 18.27819 100.24317 32882 ft 494 kts 180°
2026-05-06 23:05 18.20815 100.24542 32886 ft 513 kts 180°
2026-05-06 23:05 18.13577 100.24775 32885 ft 522 kts 180°
2026-05-06 23:06 18.06270 100.25013 32879 ft 524 kts 180°
2026-05-06 23:06 17.98976 100.25251 32878 ft 524 kts 180°
2026-05-06 23:07 17.91684 100.25486 32878 ft 524 kts 180°
2026-05-06 23:07 17.84390 100.25722 32875 ft 524 kts 180°
2026-05-06 23:08 17.77095 100.25956 32875 ft 524 kts 180°
2026-05-06 23:08 17.69814 100.26190 32869 ft 524 kts 180°
2026-05-06 23:09 17.62530 100.26425 32871 ft 524 kts 180°
2026-05-06 23:09 17.55247 100.26659 32869 ft 524 kts 180°
2026-05-06 23:10 17.47964 100.26893 32867 ft 524 kts 180°
2026-05-06 23:10 17.40683 100.27124 32864 ft 523 kts 179°
2026-05-06 23:11 17.33453 100.27357 32859 ft 523 kts 179°
2026-05-06 23:11 17.26176 100.27590 32862 ft 523 kts 179°
2026-05-06 23:12 17.18895 100.27823 32866 ft 523 kts 179°
2026-05-06 23:12 17.11615 100.28055 32865 ft 523 kts 179°
2026-05-06 23:13 17.04339 100.28284 32863 ft 523 kts 179°
2026-05-06 23:13 16.97073 100.28518 32864 ft 523 kts 179°
2026-05-06 23:14 16.89795 100.28749 32860 ft 523 kts 179°
2026-05-06 23:14 16.82522 100.28979 32848 ft 523 kts 179°
2026-05-06 23:15 16.75252 100.29191 32846 ft 522 kts 180°
2026-05-06 23:15 16.67990 100.29229 32850 ft 521 kts 180°
2026-05-06 23:16 16.60724 100.29236 32850 ft 521 kts 180°
2026-05-06 23:16 16.53469 100.29255 32851 ft 521 kts 180°
2026-05-06 23:17 16.46206 100.29281 32849 ft 521 kts 180°
2026-05-06 23:17 16.38951 100.29306 32848 ft 522 kts 180°
2026-05-06 23:18 16.31694 100.29334 32848 ft 521 kts 180°
2026-05-06 23:18 16.24477 100.29364 32851 ft 522 kts 180°
2026-05-06 23:19 16.17214 100.29398 32845 ft 522 kts 180°
2026-05-06 23:19 16.09941 100.29431 32843 ft 522 kts 180°
2026-05-06 23:19 16.06340 100.29447 32838 ft 511 kts 180°
2026-05-06 23:20 16.02843 100.29462 32836 ft 494 kts 180°
2026-05-06 23:20 15.99461 100.29476 32837 ft 479 kts 180°
2026-05-06 23:20 15.96158 100.29490 32842 ft 473 kts 180°
2026-05-06 23:21 15.89585 100.29517 32847 ft 472 kts 180°
2026-05-06 23:21 15.83017 100.29543 32849 ft 472 kts 180°
2026-05-06 23:22 15.76448 100.29570 32850 ft 472 kts 180°
2026-05-06 23:22 15.69922 100.29596 32853 ft 471 kts 180°
2026-05-06 23:23 15.63318 100.29624 32858 ft 471 kts 180°
2026-05-06 23:23 15.56800 100.29651 32826 ft 471 kts 180°
2026-05-06 23:23 15.53520 100.29664 32305 ft 472 kts 180°
2026-05-06 23:24 15.50207 100.29676 31280 ft 482 kts 180°
2026-05-06 23:24 15.46833 100.29689 30517 ft 486 kts 180°
2026-05-06 23:24 15.43453 100.29701 29857 ft 486 kts 180°
2026-05-06 23:24 15.40066 100.29714 29113 ft 487 kts 179°
2026-05-06 23:25 15.36662 100.29727 28420 ft 486 kts 179°
2026-05-06 23:25 15.33286 100.29741 27755 ft 485 kts 179°
2026-05-06 23:25 15.29929 100.29933 27065 ft 483 kts 171°
2026-05-06 23:25 15.26673 100.30749 26433 ft 480 kts 160°
2026-05-06 23:26 15.23632 100.32161 25770 ft 478 kts 150°
2026-05-06 23:26 15.20765 100.33889 25112 ft 476 kts 148°
2026-05-06 23:26 15.17936 100.35648 24670 ft 471 kts 148°
2026-05-06 23:26 15.15148 100.37386 24232 ft 465 kts 148°
2026-05-06 23:27 15.12393 100.39097 23790 ft 459 kts 148°
2026-05-06 23:27 15.09662 100.40785 23341 ft 454 kts 148°
2026-05-06 23:27 15.06961 100.42448 22834 ft 449 kts 148°
2026-05-06 23:27 15.04289 100.44090 22378 ft 444 kts 148°
2026-05-06 23:28 15.01688 100.45687 21928 ft 438 kts 148°
2026-05-06 23:28 14.99073 100.47290 21474 ft 433 kts 148°
2026-05-06 23:28 14.96493 100.48870 21039 ft 429 kts 148°
2026-05-06 23:28 14.93939 100.50434 20603 ft 424 kts 148°
2026-05-06 23:29 14.91408 100.51983 20152 ft 420 kts 148°
2026-05-06 23:29 14.88899 100.53519 19727 ft 417 kts 148°
2026-05-06 23:29 14.86412 100.55040 19293 ft 413 kts 148°
2026-05-06 23:29 14.83942 100.56550 18856 ft 410 kts 148°
2026-05-06 23:30 14.81492 100.58048 18443 ft 407 kts 148°
2026-05-06 23:30 14.79093 100.59514 18280 ft 394 kts 148°
2026-05-06 23:30 14.76766 100.60934 18158 ft 382 kts 148°
2026-05-06 23:30 14.74512 100.62309 18012 ft 370 kts 148°
2026-05-06 23:31 14.72263 100.63518 17883 ft 360 kts 154°
2026-05-06 23:31 14.69929 100.64495 17835 ft 367 kts 159°
2026-05-06 23:31 14.67473 100.65301 17847 ft 372 kts 161°
2026-05-06 23:31 14.64990 100.66063 17747 ft 373 kts 162°
2026-05-06 23:32 14.62501 100.66819 17270 ft 372 kts 162°
2026-05-06 23:32 14.60024 100.67576 16854 ft 369 kts 162°
2026-05-06 23:32 14.57577 100.68326 16461 ft 365 kts 162°
2026-05-06 23:32 14.55180 100.69063 16086 ft 362 kts 162°
2026-05-06 23:33 14.52777 100.69802 15710 ft 359 kts 162°
2026-05-06 23:33 14.50405 100.70531 15529 ft 349 kts 162°
2026-05-06 23:33 14.48118 100.71233 15443 ft 336 kts 162°
2026-05-06 23:33 14.45899 100.71845 15345 ft 326 kts 169°
2026-05-06 23:34 14.43669 100.71935 15205 ft 318 kts 184°
2026-05-06 23:34 14.41492 100.71511 14858 ft 318 kts 192°
2026-05-06 23:34 14.39349 100.70937 14524 ft 318 kts 193°
2026-05-06 23:34 14.37216 100.70349 14194 ft 317 kts 193°
2026-05-06 23:35 14.35089 100.69768 13861 ft 316 kts 193°
2026-05-06 23:35 14.32968 100.69198 13510 ft 315 kts 193°
2026-05-06 23:35 14.30856 100.68636 13166 ft 312 kts 193°
2026-05-06 23:35 14.28757 100.68081 12849 ft 310 kts 193°
2026-05-06 23:36 14.26680 100.67533 12528 ft 307 kts 193°
2026-05-06 23:36 14.24620 100.66990 12207 ft 304 kts 193°
2026-05-06 23:36 14.22574 100.66452 11907 ft 302 kts 193°
2026-05-06 23:36 14.20547 100.65919 11599 ft 300 kts 193°
2026-05-06 23:37 14.18533 100.65390 11295 ft 298 kts 193°
2026-05-06 23:37 14.16559 100.64870 10998 ft 296 kts 193°
2026-05-06 23:37 14.14577 100.64348 10690 ft 294 kts 193°
2026-05-06 23:37 14.12582 100.63822 10377 ft 293 kts 193°
2026-05-06 23:38 14.10613 100.63304 10079 ft 291 kts 193°
2026-05-06 23:38 14.08653 100.62788 9784 ft 290 kts 193°
2026-05-06 23:38 14.06705 100.62275 9456 ft 288 kts 193°
2026-05-06 23:38 14.04772 100.61767 9210 ft 282 kts 193°
2026-05-06 23:39 14.02913 100.61277 9164 ft 269 kts 192°
2026-05-06 23:39 14.01112 100.61103 9039 ft 255 kts 165°
2026-05-06 23:39 13.99560 100.61859 8931 ft 248 kts 136°
2026-05-06 23:39 13.98579 100.63287 8592 ft 246 kts 108°
2026-05-06 23:40 13.98122 100.64982 8305 ft 245 kts 103°
2026-05-06 23:40 13.97844 100.66108 8116 ft 245 kts 103°
2026-05-06 23:40 13.97419 100.67808 7829 ft 244 kts 104°
2026-05-06 23:40 13.97068 100.69517 7519 ft 244 kts 89°
2026-05-06 23:41 13.97476 100.71194 7190 ft 244 kts 58°
2026-05-06 23:41 13.98659 100.72424 6902 ft 245 kts 29°
2026-05-06 23:41 14.00267 100.72995 6623 ft 245 kts 15°
2026-05-06 23:41 14.01915 100.73460 6341 ft 245 kts 25°
2026-05-06 23:42 14.03222 100.74547 5993 ft 243 kts 58°
2026-05-06 23:42 14.03754 100.76173 5672 ft 241 kts 89°
2026-05-06 23:42 14.03481 100.77869 5376 ft 241 kts 105°
2026-05-06 23:42 14.03025 100.79526 5100 ft 239 kts 105°
2026-05-06 23:43 14.02574 100.81162 5018 ft 236 kts 105°
2026-05-06 23:43 14.01952 100.82724 4996 ft 238 kts 127°
2026-05-06 23:43 14.00646 100.83769 5001 ft 241 kts 159°
2026-05-06 23:43 13.98988 100.83987 5010 ft 243 kts 184°
2026-05-06 23:44 13.97324 100.83667 5008 ft 244 kts 193°
2026-05-06 23:44 13.95685 100.83199 4987 ft 244 kts 194°
2026-05-06 23:44 13.94057 100.82717 4803 ft 243 kts 194°
2026-05-06 23:44 13.92424 100.82251 4478 ft 244 kts 193°
2026-05-06 23:45 13.90784 100.81802 4171 ft 244 kts 193°
2026-05-06 23:45 13.89127 100.81360 3832 ft 244 kts 193°
2026-05-06 23:45 13.87506 100.80934 3467 ft 236 kts 193°
2026-05-06 23:45 13.85954 100.80526 3236 ft 224 kts 193°
2026-05-06 23:46 13.84488 100.80142 2989 ft 212 kts 193°
2026-05-06 23:46 13.83090 100.79775 2720 ft 203 kts 193°
2026-05-06 23:46 13.81741 100.79422 2455 ft 196 kts 193°
2026-05-06 23:46 13.80464 100.79086 2193 ft 183 kts 194°
2026-05-06 23:47 13.79273 100.78772 1959 ft 169 kts 194°
2026-05-06 23:47 13.78168 100.78480 1756 ft 161 kts 194°
2026-05-06 23:47 13.77108 100.78201 1562 ft 159 kts 194°
2026-05-06 23:47 13.76029 100.77916 1364 ft 158 kts 194°
2026-05-06 23:48 13.74965 100.77634 1161 ft 157 kts 194°
2026-05-06 23:48 13.73920 100.77358 962 ft 157 kts 194°
2026-05-06 23:48 13.72865 100.77078 776 ft 156 kts 193°
2026-05-06 23:48 13.71812 100.76795 563 ft 156 kts 193°
2026-05-06 23:49 13.70763 100.76520 373 ft 155 kts 193°
2026-05-06 23:49 13.69716 100.76246 166 ft 155 kts 193°
2026-05-06 23:49 13.68673 100.75971 31 ft 150 kts 193°
2026-05-06 23:49 13.67805 100.75746 19 ft 104 kts 194°
2026-05-06 23:50 13.67272 100.75605 22 ft 65 kts 194°
2026-05-06 23:50 13.66689 100.75368 24 ft 22 kts 224°